Year,Month,Day,Hour,Minute,Value (Times are PST for temperature in C)
2012,07,07,00,00,14.60
2012,07,07,00,01,14.50
2012,07,07,00,02,14.50
2012,07,07,00,03,14.50
2012,07,07,00,04,14.50
2012,07,07,00,05,14.50
2012,07,07,00,06,14.50
2012,07,07,00,07,14.50
2012,07,07,00,08,14.50
2012,07,07,00,09,14.50
2012,07,07,00,10,14.50
2012,07,07,00,11,14.50
2012,07,07,00,12,14.50
2012,07,07,00,13,14.50
2012,07,07,00,14,14.50
2012,07,07,00,15,14.50
2012,07,07,00,16,14.50
2012,07,07,00,17,14.50
2012,07,07,00,18,14.50
2012,07,07,00,19,14.50
2012,07,07,00,20,14.50
2012,07,07,00,21,14.50
2012,07,07,00,22,14.50
2012,07,07,00,23,14.50
2012,07,07,00,24,14.50
2012,07,07,00,25,14.50
2012,07,07,00,26,14.50
2012,07,07,00,27,14.50
2012,07,07,00,28,14.50
2012,07,07,00,29,14.50
2012,07,07,00,30,14.50
2012,07,07,00,31,14.50
2012,07,07,00,32,14.50
2012,07,07,00,33,14.50
2012,07,07,00,34,14.60
2012,07,07,00,35,14.60
2012,07,07,00,36,14.60
2012,07,07,00,37,14.70
2012,07,07,00,38,14.70
2012,07,07,00,39,14.70
2012,07,07,00,40,14.70
2012,07,07,00,41,14.70
2012,07,07,00,42,14.80
2012,07,07,00,43,14.80
2012,07,07,00,44,14.80
2012,07,07,00,45,14.80
2012,07,07,00,46,14.80
2012,07,07,00,47,14.80
2012,07,07,00,48,14.80
2012,07,07,00,49,14.80
2012,07,07,00,50,14.80
2012,07,07,00,51,14.80
2012,07,07,00,52,14.80
2012,07,07,00,53,14.80
2012,07,07,00,54,14.80
2012,07,07,00,55,14.70
2012,07,07,00,56,14.70
2012,07,07,00,57,14.70
2012,07,07,00,58,14.70
2012,07,07,00,59,14.70
2012,07,07,01,00,14.70
2012,07,07,01,01,14.70
2012,07,07,01,02,14.70
2012,07,07,01,03,14.70
2012,07,07,01,04,14.70
2012,07,07,01,05,14.70
2012,07,07,01,06,14.70
2012,07,07,01,07,14.70
2012,07,07,01,08,14.70
2012,07,07,01,09,14.70
2012,07,07,01,10,14.70
2012,07,07,01,11,14.70
2012,07,07,01,12,14.70
2012,07,07,01,13,14.70
2012,07,07,01,14,14.70
2012,07,07,01,15,14.70
2012,07,07,01,16,14.70
2012,07,07,01,17,14.70
2012,07,07,01,18,14.70
2012,07,07,01,19,14.70
2012,07,07,01,20,14.70
2012,07,07,01,21,14.70
2012,07,07,01,22,14.70
2012,07,07,01,23,14.70
2012,07,07,01,24,14.70
2012,07,07,01,25,14.70
2012,07,07,01,26,14.70
2012,07,07,01,27,14.70
2012,07,07,01,28,14.60
2012,07,07,01,29,14.60
2012,07,07,01,30,14.60
2012,07,07,01,31,14.60
2012,07,07,01,32,14.60
2012,07,07,01,33,14.60
2012,07,07,01,34,14.60
2012,07,07,01,35,14.50
2012,07,07,01,36,14.50
2012,07,07,01,37,14.50
2012,07,07,01,38,14.50
2012,07,07,01,39,14.50
2012,07,07,01,40,14.40
2012,07,07,01,41,14.40
2012,07,07,01,42,14.40
2012,07,07,01,43,14.40
2012,07,07,01,44,14.40
2012,07,07,01,45,14.30
2012,07,07,01,46,14.30
2012,07,07,01,47,14.30
2012,07,07,01,48,14.20
2012,07,07,01,49,14.20
2012,07,07,01,50,14.20
2012,07,07,01,51,14.20
2012,07,07,01,52,14.20
2012,07,07,01,53,14.10
2012,07,07,01,54,14.10
2012,07,07,01,55,14.10
2012,07,07,01,56,14.10
2012,07,07,01,57,14.10
2012,07,07,01,58,14.10
2012,07,07,01,59,14.10
2012,07,07,02,00,14.10
2012,07,07,02,01,14.10
2012,07,07,02,02,14.10
2012,07,07,02,03,14.10
2012,07,07,02,04,14.10
2012,07,07,02,05,14.10
2012,07,07,02,06,14.10
2012,07,07,02,07,14.10
2012,07,07,02,08,14.10
2012,07,07,02,09,14.10
2012,07,07,02,10,14.10
2012,07,07,02,11,14.10
2012,07,07,02,12,14.10
2012,07,07,02,13,14.10
2012,07,07,02,14,14.10
2012,07,07,02,15,14.10
2012,07,07,02,16,14.10
2012,07,07,02,17,14.10
2012,07,07,02,18,14.20
2012,07,07,02,19,14.20
2012,07,07,02,20,14.20
2012,07,07,02,21,14.20
2012,07,07,02,22,14.30
2012,07,07,02,23,14.30
2012,07,07,02,24,14.40
2012,07,07,02,25,14.40
2012,07,07,02,26,14.50
2012,07,07,02,27,14.50
2012,07,07,02,28,14.60
2012,07,07,02,29,14.60
2012,07,07,02,30,14.70
2012,07,07,02,31,14.70
2012,07,07,02,32,14.70
2012,07,07,02,33,14.70
2012,07,07,02,34,14.80
2012,07,07,02,35,14.80
2012,07,07,02,36,14.80
2012,07,07,02,37,14.80
2012,07,07,02,38,14.80
2012,07,07,02,39,14.70
2012,07,07,02,40,14.70
2012,07,07,02,41,14.70
2012,07,07,02,42,14.70
2012,07,07,02,43,14.60
2012,07,07,02,44,14.60
2012,07,07,02,45,14.60
2012,07,07,02,46,14.50
2012,07,07,02,47,14.50
2012,07,07,02,48,14.40
2012,07,07,02,49,14.40
2012,07,07,02,50,14.30
2012,07,07,02,51,14.20
2012,07,07,02,52,14.20
2012,07,07,02,53,14.20
2012,07,07,02,54,14.10
2012,07,07,02,55,14.00
2012,07,07,02,56,14.00
2012,07,07,02,57,13.90
2012,07,07,02,58,13.90
2012,07,07,02,59,13.80
2012,07,07,03,00,13.80
2012,07,07,03,01,13.70
2012,07,07,03,02,13.70
2012,07,07,03,03,13.70
2012,07,07,03,04,13.60
2012,07,07,03,05,13.60
2012,07,07,03,06,13.50
2012,07,07,03,07,13.50
2012,07,07,03,08,13.50
2012,07,07,03,09,13.50
2012,07,07,03,10,13.40
2012,07,07,03,11,13.40
2012,07,07,03,12,13.40
2012,07,07,03,13,13.40
2012,07,07,03,14,13.40
2012,07,07,03,15,13.40
2012,07,07,03,16,13.40
2012,07,07,03,17,13.40
2012,07,07,03,18,13.30
2012,07,07,03,19,13.30
2012,07,07,03,20,13.30
2012,07,07,03,21,13.30
2012,07,07,03,22,13.30
2012,07,07,03,23,13.30
2012,07,07,03,24,13.30
2012,07,07,03,25,13.20
2012,07,07,03,26,13.20
2012,07,07,03,27,13.20
2012,07,07,03,28,13.10
2012,07,07,03,29,13.10
2012,07,07,03,30,13.10
2012,07,07,03,31,13.10
2012,07,07,03,32,13.00
2012,07,07,03,33,13.00
2012,07,07,03,34,13.00
2012,07,07,03,35,13.00
2012,07,07,03,36,12.90
2012,07,07,03,37,12.90
2012,07,07,03,38,12.90
2012,07,07,03,39,12.90
2012,07,07,03,40,12.90
2012,07,07,03,41,12.90
2012,07,07,03,42,12.90
2012,07,07,03,43,12.90
2012,07,07,03,44,12.90
2012,07,07,03,45,12.90
2012,07,07,03,46,12.80
2012,07,07,03,47,12.80
2012,07,07,03,48,12.80
2012,07,07,03,49,12.80
2012,07,07,03,50,12.80
2012,07,07,03,51,12.80
2012,07,07,03,52,12.70
2012,07,07,03,53,12.70
2012,07,07,03,54,12.70
2012,07,07,03,55,12.60
2012,07,07,03,56,12.60
2012,07,07,03,57,12.60
2012,07,07,03,58,12.50
2012,07,07,03,59,12.50
2012,07,07,04,00,12.50
2012,07,07,04,01,12.50
2012,07,07,04,02,12.50
2012,07,07,04,03,12.40
2012,07,07,04,04,12.40
2012,07,07,04,05,12.40
2012,07,07,04,06,12.40
2012,07,07,04,07,12.40
2012,07,07,04,08,12.30
2012,07,07,04,09,12.30
2012,07,07,04,10,12.30
2012,07,07,04,11,12.30
2012,07,07,04,12,12.30
2012,07,07,04,13,12.30
2012,07,07,04,14,12.20
2012,07,07,04,15,12.20
2012,07,07,04,16,12.20
2012,07,07,04,17,12.20
2012,07,07,04,18,12.20
2012,07,07,04,19,12.10
2012,07,07,04,20,12.10
2012,07,07,04,21,12.10
2012,07,07,04,22,12.10
2012,07,07,04,23,12.10
2012,07,07,04,24,12.00
2012,07,07,04,25,12.00
2012,07,07,04,26,12.00
2012,07,07,04,27,12.00
2012,07,07,04,28,11.90
2012,07,07,04,29,11.90
2012,07,07,04,30,11.90
2012,07,07,04,31,11.80
2012,07,07,04,32,11.80
2012,07,07,04,33,11.80
2012,07,07,04,34,11.80
2012,07,07,04,35,11.80
2012,07,07,04,36,11.80
2012,07,07,04,37,11.80
2012,07,07,04,38,11.80
2012,07,07,04,39,11.80
2012,07,07,04,40,11.80
2012,07,07,04,41,11.70
2012,07,07,04,42,11.70
2012,07,07,04,43,11.70
2012,07,07,04,44,11.70
2012,07,07,04,45,11.60
2012,07,07,04,46,11.60
2012,07,07,04,47,11.60
2012,07,07,04,48,11.60
2012,07,07,04,49,11.60
2012,07,07,04,50,11.60
2012,07,07,04,51,11.60
2012,07,07,04,52,11.60
2012,07,07,04,53,11.60
2012,07,07,04,54,11.60
2012,07,07,04,55,11.60
2012,07,07,04,56,11.60
2012,07,07,04,57,11.60
2012,07,07,04,58,11.60
2012,07,07,04,59,11.60
2012,07,07,05,00,11.50
2012,07,07,05,01,11.40
2012,07,07,05,02,11.40
2012,07,07,05,03,11.40
2012,07,07,05,04,11.40
2012,07,07,05,05,11.40
2012,07,07,05,06,11.40
2012,07,07,05,07,11.40
2012,07,07,05,08,11.40
2012,07,07,05,09,11.40
2012,07,07,05,10,11.40
2012,07,07,05,11,11.30
2012,07,07,05,12,11.30
2012,07,07,05,13,11.30
2012,07,07,05,14,11.30
2012,07,07,05,15,11.30
2012,07,07,05,16,11.30
2012,07,07,05,17,11.30
2012,07,07,05,18,11.30
2012,07,07,05,19,11.30
2012,07,07,05,20,11.30
2012,07,07,05,21,11.20
2012,07,07,05,22,11.20
2012,07,07,05,23,11.20
2012,07,07,05,24,11.20
2012,07,07,05,25,11.20
2012,07,07,05,26,11.20
2012,07,07,05,27,11.20
2012,07,07,05,28,11.20
2012,07,07,05,29,11.20
2012,07,07,05,30,11.20
2012,07,07,05,31,11.10
2012,07,07,05,32,11.10
2012,07,07,05,33,11.10
2012,07,07,05,34,11.10
2012,07,07,05,35,11.10
2012,07,07,05,36,11.10
2012,07,07,05,37,11.10
2012,07,07,05,38,11.10
2012,07,07,05,39,11.10
2012,07,07,05,40,11.10
2012,07,07,05,41,11.10
2012,07,07,05,42,11.10
2012,07,07,05,43,11.10
2012,07,07,05,44,11.00
2012,07,07,05,45,10.90
2012,07,07,05,46,10.90
2012,07,07,05,47,10.90
2012,07,07,05,48,10.90
2012,07,07,05,49,10.90
2012,07,07,05,50,10.90
2012,07,07,05,51,10.90
2012,07,07,05,52,10.90
2012,07,07,05,53,10.90
2012,07,07,05,54,10.90
2012,07,07,05,55,10.90
2012,07,07,05,56,10.90
2012,07,07,05,57,10.90
2012,07,07,05,58,10.90
2012,07,07,05,59,10.90
2012,07,07,06,00,10.90
2012,07,07,06,01,10.90
2012,07,07,06,02,10.90
2012,07,07,06,03,10.90
2012,07,07,06,04,10.90
2012,07,07,06,05,10.90
2012,07,07,06,06,10.90
2012,07,07,06,07,10.90
2012,07,07,06,08,10.90
2012,07,07,06,09,11.00
2012,07,07,06,10,11.10
2012,07,07,06,11,11.10
2012,07,07,06,12,11.10
2012,07,07,06,13,11.10
2012,07,07,06,14,11.10
2012,07,07,06,15,11.10
2012,07,07,06,16,11.10
2012,07,07,06,17,11.10
2012,07,07,06,18,11.10
2012,07,07,06,19,11.10
2012,07,07,06,20,11.10
2012,07,07,06,21,11.20
2012,07,07,06,22,11.20
2012,07,07,06,23,11.20
2012,07,07,06,24,11.30
2012,07,07,06,25,11.30
2012,07,07,06,26,11.30
2012,07,07,06,27,11.40
2012,07,07,06,28,11.40
2012,07,07,06,29,11.40
2012,07,07,06,30,11.60
2012,07,07,06,31,11.60
2012,07,07,06,32,11.60
2012,07,07,06,33,11.60
2012,07,07,06,34,11.70
2012,07,07,06,35,11.70
2012,07,07,06,36,11.80
2012,07,07,06,37,11.80
2012,07,07,06,38,11.80
2012,07,07,06,39,11.90
2012,07,07,06,40,12.00
2012,07,07,06,41,12.00
2012,07,07,06,42,12.10
2012,07,07,06,43,12.10
2012,07,07,06,44,12.20
2012,07,07,06,45,12.20
2012,07,07,06,46,12.30
2012,07,07,06,47,12.30
2012,07,07,06,48,12.40
2012,07,07,06,49,12.40
2012,07,07,06,50,12.50
2012,07,07,06,51,12.50
2012,07,07,06,52,12.60
2012,07,07,06,53,12.60
2012,07,07,06,54,12.70
2012,07,07,06,55,12.70
2012,07,07,06,56,12.70
2012,07,07,06,57,12.80
2012,07,07,06,58,12.80
2012,07,07,06,59,12.80
2012,07,07,07,00,12.90
2012,07,07,07,01,12.90
2012,07,07,07,02,13.00
2012,07,07,07,03,13.00
2012,07,07,07,04,13.00
2012,07,07,07,05,13.10
2012,07,07,07,06,13.10
2012,07,07,07,07,13.20
2012,07,07,07,08,13.20
2012,07,07,07,09,13.30
2012,07,07,07,10,13.30
2012,07,07,07,11,13.30
2012,07,07,07,12,13.40
2012,07,07,07,13,13.50
2012,07,07,07,14,13.50
2012,07,07,07,15,13.60
2012,07,07,07,16,13.70
2012,07,07,07,17,13.70
2012,07,07,07,18,13.80
2012,07,07,07,19,13.90
2012,07,07,07,20,14.00
2012,07,07,07,21,14.10
2012,07,07,07,22,14.20
2012,07,07,07,23,14.30
2012,07,07,07,24,14.40
2012,07,07,07,25,14.50
2012,07,07,07,26,14.60
2012,07,07,07,27,14.60
2012,07,07,07,28,14.70
2012,07,07,07,29,14.80
2012,07,07,07,30,14.90
2012,07,07,07,31,15.00
2012,07,07,07,32,15.00
2012,07,07,07,33,15.10
2012,07,07,07,34,15.10
2012,07,07,07,35,15.20
2012,07,07,07,36,15.20
2012,07,07,07,37,15.30
2012,07,07,07,38,15.30
2012,07,07,07,39,15.30
2012,07,07,07,40,15.30
2012,07,07,07,41,15.40
2012,07,07,07,42,15.40
2012,07,07,07,43,15.50
2012,07,07,07,44,15.60
2012,07,07,07,45,15.60
2012,07,07,07,46,15.70
2012,07,07,07,47,15.80
2012,07,07,07,48,15.80
2012,07,07,07,49,15.80
2012,07,07,07,50,15.90
2012,07,07,07,51,15.90
2012,07,07,07,52,16.00
2012,07,07,07,53,16.10
2012,07,07,07,54,16.10
2012,07,07,07,55,16.10
2012,07,07,07,56,16.10
2012,07,07,07,57,16.10
2012,07,07,07,58,16.10
2012,07,07,07,59,16.10
2012,07,07,08,00,16.10
2012,07,07,08,01,16.10
2012,07,07,08,02,16.10
2012,07,07,08,03,16.10
2012,07,07,08,04,16.10
2012,07,07,08,05,16.10
2012,07,07,08,06,16.10
2012,07,07,08,07,16.10
2012,07,07,08,08,16.10
2012,07,07,08,09,16.10
2012,07,07,08,10,16.10
2012,07,07,08,11,16.10
2012,07,07,08,12,16.10
2012,07,07,08,13,16.10
2012,07,07,08,14,16.10
2012,07,07,08,15,16.10
2012,07,07,08,16,16.10
2012,07,07,08,17,16.10
2012,07,07,08,18,16.10
2012,07,07,08,19,16.10
2012,07,07,08,20,16.10
2012,07,07,08,21,16.10
2012,07,07,08,22,16.20
2012,07,07,08,23,16.30
2012,07,07,08,24,16.40
2012,07,07,08,25,16.50
2012,07,07,08,26,16.60
2012,07,07,08,27,16.70
2012,07,07,08,28,16.70
2012,07,07,08,29,16.70
2012,07,07,08,30,16.70
2012,07,07,08,31,16.70
2012,07,07,08,32,16.80
2012,07,07,08,33,16.80
2012,07,07,08,34,16.90
2012,07,07,08,35,16.90
2012,07,07,08,36,16.90
2012,07,07,08,37,17.00
2012,07,07,08,38,17.00
2012,07,07,08,39,17.00
2012,07,07,08,40,17.00
2012,07,07,08,41,17.00
2012,07,07,08,42,17.10
2012,07,07,08,43,17.10
2012,07,07,08,44,17.10
2012,07,07,08,45,17.10
2012,07,07,08,46,17.20
2012,07,07,08,47,17.10
2012,07,07,08,48,17.10
2012,07,07,08,49,17.10
2012,07,07,08,50,17.10
2012,07,07,08,51,17.10
2012,07,07,08,52,17.10
2012,07,07,08,53,17.10
2012,07,07,08,54,17.20
2012,07,07,08,55,17.30
2012,07,07,08,56,17.30
2012,07,07,08,57,17.30
2012,07,07,08,58,17.40
2012,07,07,08,59,17.40
2012,07,07,09,00,17.40
2012,07,07,09,01,17.30
2012,07,07,09,02,17.30
2012,07,07,09,03,17.30
2012,07,07,09,04,17.40
2012,07,07,09,05,17.40
2012,07,07,09,06,17.50
2012,07,07,09,07,17.50
2012,07,07,09,08,17.60
2012,07,07,09,09,17.70
2012,07,07,09,10,17.70
2012,07,07,09,11,17.70
2012,07,07,09,12,17.70
2012,07,07,09,13,17.80
2012,07,07,09,14,17.80
2012,07,07,09,15,17.90
2012,07,07,09,16,18.00
2012,07,07,09,17,18.10
2012,07,07,09,18,18.20
2012,07,07,09,19,18.20
2012,07,07,09,20,18.30
2012,07,07,09,21,18.30
2012,07,07,09,22,18.30
2012,07,07,09,23,18.30
2012,07,07,09,24,18.40
2012,07,07,09,25,18.40
2012,07,07,09,26,18.30
2012,07,07,09,27,18.20
2012,07,07,09,28,18.10
2012,07,07,09,29,18.10
2012,07,07,09,30,18.00
2012,07,07,09,31,17.90
2012,07,07,09,32,17.90
2012,07,07,09,33,17.80
2012,07,07,09,34,17.70
2012,07,07,09,35,17.50
2012,07,07,09,36,17.50
2012,07,07,09,37,17.40
2012,07,07,09,38,17.50
2012,07,07,09,39,17.50
2012,07,07,09,40,17.50
2012,07,07,09,41,17.50
2012,07,07,09,42,17.60
2012,07,07,09,43,17.70
2012,07,07,09,44,17.70
2012,07,07,09,45,17.70
2012,07,07,09,46,17.80
2012,07,07,09,47,17.90
2012,07,07,09,48,17.90
2012,07,07,09,49,18.10
2012,07,07,09,50,18.20
2012,07,07,09,51,18.30
2012,07,07,09,52,18.30
2012,07,07,09,53,18.30
2012,07,07,09,54,18.50
2012,07,07,09,55,18.60
2012,07,07,09,56,18.60
2012,07,07,09,57,18.50
2012,07,07,09,58,18.50
2012,07,07,09,59,18.40
2012,07,07,10,00,18.40
2012,07,07,10,01,18.50
2012,07,07,10,02,18.50
2012,07,07,10,03,18.60
2012,07,07,10,04,18.70
2012,07,07,10,05,18.90
2012,07,07,10,06,18.90
2012,07,07,10,07,19.00
2012,07,07,10,08,19.10
2012,07,07,10,09,19.10
2012,07,07,10,10,19.20
2012,07,07,10,11,19.20
2012,07,07,10,12,19.30
2012,07,07,10,13,19.40
2012,07,07,10,14,19.50
2012,07,07,10,15,19.60
2012,07,07,10,16,19.60
2012,07,07,10,17,19.50
2012,07,07,10,18,19.50
2012,07,07,10,19,19.60
2012,07,07,10,20,19.70
2012,07,07,10,21,19.80
2012,07,07,10,22,19.90
2012,07,07,10,23,19.90
2012,07,07,10,24,20.00
2012,07,07,10,25,20.10
2012,07,07,10,26,20.20
2012,07,07,10,27,20.20
2012,07,07,10,28,20.20
2012,07,07,10,29,20.20
2012,07,07,10,30,20.20
2012,07,07,10,31,20.10
2012,07,07,10,32,20.10
2012,07,07,10,33,20.10
2012,07,07,10,34,20.00
2012,07,07,10,35,19.90
2012,07,07,10,36,20.00
2012,07,07,10,37,20.10
2012,07,07,10,38,20.20
2012,07,07,10,39,20.20
2012,07,07,10,40,20.10
2012,07,07,10,41,20.00
2012,07,07,10,42,19.90
2012,07,07,10,43,19.90
2012,07,07,10,44,19.90
2012,07,07,10,45,19.80
2012,07,07,10,46,19.70
2012,07,07,10,47,19.50
2012,07,07,10,48,19.30
2012,07,07,10,49,19.20
2012,07,07,10,50,19.10
2012,07,07,10,51,19.00
2012,07,07,10,52,18.90
2012,07,07,10,53,18.80
2012,07,07,10,54,18.70
2012,07,07,10,55,18.60
2012,07,07,10,56,18.60
2012,07,07,10,57,18.70
2012,07,07,10,58,18.80
2012,07,07,10,59,18.90
2012,07,07,11,00,19.10
2012,07,07,11,01,18.90
2012,07,07,11,02,18.90
2012,07,07,11,03,18.90
2012,07,07,11,04,18.80
2012,07,07,11,05,18.70
2012,07,07,11,06,18.70
2012,07,07,11,07,18.70
2012,07,07,11,08,18.60
2012,07,07,11,09,18.60
2012,07,07,11,10,18.40
2012,07,07,11,11,18.40
2012,07,07,11,12,18.30
2012,07,07,11,13,18.20
2012,07,07,11,14,18.20
2012,07,07,11,15,18.20
2012,07,07,11,16,18.10
2012,07,07,11,17,18.10
2012,07,07,11,18,18.10
2012,07,07,11,19,18.30
2012,07,07,11,20,18.50
2012,07,07,11,21,18.60
2012,07,07,11,22,18.60
2012,07,07,11,23,18.60
2012,07,07,11,24,18.60
2012,07,07,11,25,18.70
2012,07,07,11,26,18.60
2012,07,07,11,27,18.70
2012,07,07,11,28,18.70
2012,07,07,11,29,18.70
2012,07,07,11,30,18.70
2012,07,07,11,31,18.70
2012,07,07,11,32,18.80
2012,07,07,11,33,18.70
2012,07,07,11,34,18.60
2012,07,07,11,35,18.50
2012,07,07,11,36,18.40
2012,07,07,11,37,18.20
2012,07,07,11,38,18.10
2012,07,07,11,39,17.90
2012,07,07,11,40,18.00
2012,07,07,11,41,18.10
2012,07,07,11,42,18.20
2012,07,07,11,43,18.20
2012,07,07,11,44,18.20
2012,07,07,11,45,18.20
2012,07,07,11,46,18.20
2012,07,07,11,47,18.10
2012,07,07,11,48,18.10
2012,07,07,11,49,18.20
2012,07,07,11,50,18.20
2012,07,07,11,51,18.20
2012,07,07,11,52,18.20
2012,07,07,11,53,18.20
2012,07,07,11,54,18.40
2012,07,07,11,55,18.50
2012,07,07,11,56,18.50
2012,07,07,11,57,18.50
2012,07,07,11,58,18.50
2012,07,07,11,59,18.50
2012,07,07,12,00,18.50
2012,07,07,12,01,18.30
2012,07,07,12,02,18.30
2012,07,07,12,03,18.30
2012,07,07,12,04,18.30
2012,07,07,12,05,18.40
2012,07,07,12,06,18.30
2012,07,07,12,07,18.30
2012,07,07,12,08,18.40
2012,07,07,12,09,18.50
2012,07,07,12,10,18.50
2012,07,07,12,11,18.50
2012,07,07,12,12,18.50
2012,07,07,12,13,18.50
2012,07,07,12,14,18.60
2012,07,07,12,15,18.60
2012,07,07,12,16,18.70
2012,07,07,12,17,18.90
2012,07,07,12,18,19.00
2012,07,07,12,19,19.20
2012,07,07,12,20,19.30
2012,07,07,12,21,19.40
2012,07,07,12,22,19.50
2012,07,07,12,23,19.60
2012,07,07,12,24,19.70
2012,07,07,12,25,19.80
2012,07,07,12,26,19.80
2012,07,07,12,27,19.90
2012,07,07,12,28,20.00
2012,07,07,12,29,20.10
2012,07,07,12,30,20.20
2012,07,07,12,31,20.20
2012,07,07,12,32,20.20
2012,07,07,12,33,20.20
2012,07,07,12,34,20.20
2012,07,07,12,35,20.10
2012,07,07,12,36,20.20
2012,07,07,12,37,20.20
2012,07,07,12,38,20.40
2012,07,07,12,39,20.50
2012,07,07,12,40,20.70
2012,07,07,12,41,20.80
2012,07,07,12,42,21.00
2012,07,07,12,43,21.20
2012,07,07,12,44,21.40
2012,07,07,12,45,21.50
2012,07,07,12,46,21.70
2012,07,07,12,47,21.70
2012,07,07,12,48,21.70
2012,07,07,12,49,21.60
2012,07,07,12,50,21.60
2012,07,07,12,51,21.60
2012,07,07,12,52,21.60
2012,07,07,12,53,21.40
2012,07,07,12,54,21.40
2012,07,07,12,55,21.40
2012,07,07,12,56,21.30
2012,07,07,12,57,21.20
2012,07,07,12,58,20.90
2012,07,07,12,59,20.80
2012,07,07,13,00,20.60
2012,07,07,13,01,20.40
2012,07,07,13,02,20.20
2012,07,07,13,03,20.00
2012,07,07,13,04,19.90
2012,07,07,13,05,19.90
2012,07,07,13,06,20.00
2012,07,07,13,07,20.20
2012,07,07,13,08,20.30
2012,07,07,13,09,20.50
2012,07,07,13,10,20.60
2012,07,07,13,11,20.50
2012,07,07,13,12,20.40
2012,07,07,13,13,20.30
2012,07,07,13,14,20.30
2012,07,07,13,15,20.30
2012,07,07,13,16,20.30
2012,07,07,13,17,20.30
2012,07,07,13,18,20.30
2012,07,07,13,19,20.50
2012,07,07,13,20,20.60
2012,07,07,13,21,20.80
2012,07,07,13,22,21.00
2012,07,07,13,23,21.10
2012,07,07,13,24,21.10
2012,07,07,13,25,21.00
2012,07,07,13,26,20.90
2012,07,07,13,27,20.90
2012,07,07,13,28,20.90
2012,07,07,13,29,20.90
2012,07,07,13,30,21.00
2012,07,07,13,31,21.10
2012,07,07,13,32,21.10
2012,07,07,13,33,21.10
2012,07,07,13,34,21.10
2012,07,07,13,35,21.10
2012,07,07,13,36,21.00
2012,07,07,13,37,21.00
2012,07,07,13,38,21.20
2012,07,07,13,39,21.30
2012,07,07,13,40,21.50
2012,07,07,13,41,21.60
2012,07,07,13,42,21.60
2012,07,07,13,43,21.60
2012,07,07,13,44,21.70
2012,07,07,13,45,21.90
2012,07,07,13,46,22.00
2012,07,07,13,47,22.10
2012,07,07,13,48,22.20
2012,07,07,13,49,22.20
2012,07,07,13,50,22.30
2012,07,07,13,51,22.40
2012,07,07,13,52,22.40
2012,07,07,13,53,22.50
2012,07,07,13,54,22.50
2012,07,07,13,55,22.50
2012,07,07,13,56,22.60
2012,07,07,13,57,22.60
2012,07,07,13,58,22.70
2012,07,07,13,59,22.80
2012,07,07,14,00,22.90
2012,07,07,14,01,22.90
2012,07,07,14,02,22.80
2012,07,07,14,03,22.90
2012,07,07,14,04,22.90
2012,07,07,14,05,22.90
2012,07,07,14,06,23.00
2012,07,07,14,07,23.10
2012,07,07,14,08,23.10
2012,07,07,14,09,23.10
2012,07,07,14,10,23.20
2012,07,07,14,11,23.30
2012,07,07,14,12,23.30
2012,07,07,14,13,23.40
2012,07,07,14,14,23.40
2012,07,07,14,15,23.40
2012,07,07,14,16,23.40
2012,07,07,14,17,23.30
2012,07,07,14,18,23.20
2012,07,07,14,19,22.90
2012,07,07,14,20,22.70
2012,07,07,14,21,22.60
2012,07,07,14,22,22.50
2012,07,07,14,23,22.50
2012,07,07,14,24,22.50
2012,07,07,14,25,22.40
2012,07,07,14,26,22.20
2012,07,07,14,27,22.10
2012,07,07,14,28,22.00
2012,07,07,14,29,21.80
2012,07,07,14,30,21.80
2012,07,07,14,31,21.80
2012,07,07,14,32,21.90
2012,07,07,14,33,22.00
2012,07,07,14,34,22.10
2012,07,07,14,35,22.10
2012,07,07,14,36,22.00
2012,07,07,14,37,21.90
2012,07,07,14,38,21.80
2012,07,07,14,39,21.60
2012,07,07,14,40,21.60
2012,07,07,14,41,21.60
2012,07,07,14,42,21.70
2012,07,07,14,43,21.90
2012,07,07,14,44,22.10
2012,07,07,14,45,22.30
2012,07,07,14,46,22.40
2012,07,07,14,47,22.40
2012,07,07,14,48,22.50
2012,07,07,14,49,22.60
2012,07,07,14,50,22.70
2012,07,07,14,51,22.80
2012,07,07,14,52,22.90
2012,07,07,14,53,22.90
2012,07,07,14,54,22.90
2012,07,07,14,55,22.80
2012,07,07,14,56,22.70
2012,07,07,14,57,22.60
2012,07,07,14,58,22.50
2012,07,07,14,59,22.50
2012,07,07,15,00,22.50
2012,07,07,15,01,22.60
2012,07,07,15,02,22.70
2012,07,07,15,03,22.70
2012,07,07,15,04,22.70
2012,07,07,15,05,22.70
2012,07,07,15,06,22.80
2012,07,07,15,07,22.90
2012,07,07,15,08,22.90
2012,07,07,15,09,22.70
2012,07,07,15,10,22.70
2012,07,07,15,11,22.80
2012,07,07,15,12,22.90
2012,07,07,15,13,23.00
2012,07,07,15,14,23.20
2012,07,07,15,15,23.30
2012,07,07,15,16,23.30
2012,07,07,15,17,23.40
2012,07,07,15,18,23.50
2012,07,07,15,19,23.60
2012,07,07,15,20,23.60
2012,07,07,15,21,23.60
2012,07,07,15,22,23.60
2012,07,07,15,23,23.60
2012,07,07,15,24,23.70
2012,07,07,15,25,23.70
2012,07,07,15,26,23.70
2012,07,07,15,27,23.70
2012,07,07,15,28,23.70
2012,07,07,15,29,23.70
2012,07,07,15,30,23.80
2012,07,07,15,31,23.70
2012,07,07,15,32,23.70
2012,07,07,15,33,23.60
2012,07,07,15,34,23.50
2012,07,07,15,35,23.40
2012,07,07,15,36,23.40
2012,07,07,15,37,23.40
2012,07,07,15,38,23.40
2012,07,07,15,39,23.40
2012,07,07,15,40,23.40
2012,07,07,15,41,23.40
2012,07,07,15,42,23.40
2012,07,07,15,43,23.40
2012,07,07,15,44,23.40
2012,07,07,15,45,23.40
2012,07,07,15,46,23.50
2012,07,07,15,47,23.60
2012,07,07,15,48,23.60
2012,07,07,15,49,23.70
2012,07,07,15,50,23.70
2012,07,07,15,51,23.80
2012,07,07,15,52,23.90
2012,07,07,15,53,23.90
2012,07,07,15,54,24.10
2012,07,07,15,55,24.10
2012,07,07,15,56,24.20
2012,07,07,15,57,24.30
2012,07,07,15,58,24.30
2012,07,07,15,59,24.20
2012,07,07,16,00,24.10
2012,07,07,16,01,24.10
2012,07,07,16,02,24.00
2012,07,07,16,03,23.90
2012,07,07,16,04,23.80
2012,07,07,16,05,23.70
2012,07,07,16,06,23.70
2012,07,07,16,07,23.70
2012,07,07,16,08,23.80
2012,07,07,16,09,23.80
2012,07,07,16,10,23.70
2012,07,07,16,11,23.70
2012,07,07,16,12,23.70
2012,07,07,16,13,23.80
2012,07,07,16,14,23.90
2012,07,07,16,15,24.10
2012,07,07,16,16,23.90
2012,07,07,16,17,24.00
2012,07,07,16,18,24.10
2012,07,07,16,19,24.10
2012,07,07,16,20,24.10
2012,07,07,16,21,24.00
2012,07,07,16,22,23.90
2012,07,07,16,23,24.10
2012,07,07,16,24,24.10
2012,07,07,16,25,24.10
2012,07,07,16,26,24.10
2012,07,07,16,27,24.20
2012,07,07,16,28,24.20
2012,07,07,16,29,24.20
2012,07,07,16,30,24.30
2012,07,07,16,31,24.30
2012,07,07,16,32,24.30
2012,07,07,16,33,24.30
2012,07,07,16,34,24.20
2012,07,07,16,35,24.20
2012,07,07,16,36,24.30
2012,07,07,16,37,24.40
2012,07,07,16,38,24.50
2012,07,07,16,39,24.50
2012,07,07,16,40,24.50
2012,07,07,16,41,24.50
2012,07,07,16,42,24.50
2012,07,07,16,43,24.50
2012,07,07,16,44,24.50
2012,07,07,16,45,24.50
2012,07,07,16,46,24.30
2012,07,07,16,47,24.30
2012,07,07,16,48,24.20
2012,07,07,16,49,24.10
2012,07,07,16,50,24.10
2012,07,07,16,51,24.10
2012,07,07,16,52,24.20
2012,07,07,16,53,24.20
2012,07,07,16,54,24.20
2012,07,07,16,55,24.20
2012,07,07,16,56,24.20
2012,07,07,16,57,24.20
2012,07,07,16,58,24.10
2012,07,07,16,59,24.10
2012,07,07,17,00,24.00
2012,07,07,17,01,23.90
2012,07,07,17,02,23.90
2012,07,07,17,03,23.80
2012,07,07,17,04,23.70
2012,07,07,17,05,23.70
2012,07,07,17,06,23.70
2012,07,07,17,07,23.70
2012,07,07,17,08,23.70
2012,07,07,17,09,23.70
2012,07,07,17,10,23.70
2012,07,07,17,11,23.70
2012,07,07,17,12,23.70
2012,07,07,17,13,23.70
2012,07,07,17,14,23.70
2012,07,07,17,15,23.70
2012,07,07,17,16,23.70
2012,07,07,17,17,23.80
2012,07,07,17,18,23.80
2012,07,07,17,19,23.80